Location: Camp at the Woods
(43.2055°N, 93.0905°W)
Time: 01:16:22
(UTC+00:00)

Cosmos 2227 Rocket - Pass Details

Date: 30 May 2025
Orbit: 837 x 844 km, 71.0° (Epoch: 12 June)

Event Time Altitude Azimuth Distance (km) Brightness Sun altitude
Exits shadow 05:07:26 12° 92° (E) 2,326 4.3 -23.4°
Drops below altitude 10° 05:09:02 10° 75° (ENE) 2,457 4.6 -23.5°
Sets 05:13:12 0° 46° (NE) 3,400 5.7 -23.7°
